Regional Weather Roundup
Issued by NWS New Orleans/Baton Rouge, LA

Home | Current Version | Previous Version | Graphics & Text | Print | Product List | Glossary On
Versions: 1 2 3 4 5 6 7 8 9 10 11 12 13 14 15 16 17 18 19 20 21 22 23 24 25 26 27 28 29 30 31 32 33 34 35 36 37 38 39 40 41 42 43 44 45 46 47 48 49 50
493
ASUS44 KLIX 220810
RWRLIX
NEW ORLEANS REGIONAL WEATHER ROUNDUP
NATIONAL WEATHER SERVICE NEW ORLEANS LA
200 AM CST MON DEC 22 2014

NOTE: "FAIR" INDICATES FEW OR NO CLOUDS BELOW 12,000 FEET WITH NO
      SIGNIFICANT WEATHER AND/OR OBSTRUCTIONS TO VISIBILITY.
      SKY/WX - SKY CONDITION AND SIGNIFICANT WEATHER.
      TMP - AIR TEMPERATURE.     DP    - DEWPOINT TEMPERATURE.
      RH  - RELATIVE HUMIDITY.   PRES  - PRESSURE.
      HI  - HEAT INDEX.          WCI   - WIND CHILL INDEX.

*  THESE STATIONS ARE NOT NWS OR FAA STATIONS AND ARE NOT UNDER
   NWS QUALITY CONTROL.

LAZ038-040-048-061>063-065>067-069-220900-
SOUTHEAST LOUISIANA

CITY           SKY/WX    TMP DP  RH WIND       PRES   REMARKS
N.O. AUDUBON     N/A     58  58 100 MISG        N/A
N.O. INTL ARPT CLOUDY    58  56  93 E7        29.91S FOG
N.O. LAKEFRONT FOG       58  56  93 E10       29.91F VSB 3/4
N.O. DOWNTOWN* CLOUDY    57  54  88 NE7       29.91F
SLIDELL        LGT RAIN  56  55  97 CALM      29.90F FOG
BATON ROUGE    FOG       53  52  96 E5        29.88S VSB 3/4
BOOTHVILLE     CLOUDY    59  59 100 NW6       29.91F FOG
BELLE CHASSE   FOG       58  57  97 E9        29.90S VSB 3/4
BOGALUSA*        N/A     56  53  89 CALM      29.92F FOG
GALLIANO*      RAIN      56  55  99 MISG      29.90R
NEW ROADS*     CLOUDY    53  52  97 CALM      29.89S FOG
GONZALES*      CLOUDY    55  55 100 CALM      29.88F FOG
HAMMOND*       NOT AVBL
HOUMA*         CLOUDY    56  56  99 CALM      29.89F FOG
PORT FOURCHON* PTSUNNY   63  63 100 CALM      29.94R FOG

$$

MSZ070-080>082-220900-
SOUTHERN MISSISSIPPI

CITY           SKY/WX    TMP DP  RH WIND       PRES   REMARKS
MCCOMB         FOG       52  52 100 SE6       29.88F VSB 1/2
GULFPORT       CLOUDY    56  55  97 E5        29.91F FOG
BILOXI         CLOUDY    57  57 100 E6        29.92S
PASCAGOULA     CLOUDY    57  55  93 NE5       29.93F

$$

COASTAL OBSERVATIONS
LAKE AND NEARSHORE STATIONS

STATION/POSITION TIME  TEMP    WIND        PRES    WAVE
                       AIR SEA DIR/SP/G            HT/PER
                 (UTC) (F)     (DEG/KT/KT) (MB)    (FT/S)
PASCAGOULA       0800   57      60/ 10/ 14 1012.7
WAVELAND YACHT   0800   56      90/  5/  6 1012.2
GRAND ISLE       0800   63 60  110/  6/  7 1012.2
SOUTHWEST PASS   0800   64                 1012.6
NEW CANAL        0800   57 56   90/  3/  7 1012.9
SHELL BEACH      0800   57 57   80/ 11/ 13 1012.3

OFFSHORE STATIONS

STATION/POSITION TIME  TEMP    WIND        PRES    WAVE
                       AIR SEA DIR/SP/G            HT/PER
                 (UTC) (F)     (DEG/KT/KT) (MB)    (FT/S)
64 S DAUPHIN ISL 0800   70 74  120/ 14/ 17 1012.2    3/ 4

$$




USA.gov is the U.S. government's official web portal to all federal, state and local government web resources and services.